Location: Newark
(7.0858°N, 171.3717°E)
Time: 03:03:06
(UTC+00:00)

Transit 4A - Pass Details

Date: 28 November 2020
Orbit: 864 x 980 km, 66.8° (Epoch: 20 January)

Event Time Altitude Azimuth Distance (km) Brightness Sun altitude
Rises 08:19:35 0° 303° (WNW) 3,577 11.4 -29.8°
Reaches altitude 10° 08:24:09 10° 272° (W) 2,603 11.0 -30.8°
Maximum altitude 08:26:05 12° 253° (WSW) 2,477 11.0 -31.3°
Drops below altitude 10° 08:28:01 10° 234° (SW) 2,578 11.0 -31.7°
Sets 08:32:30 0° 202° (SSW) 3,490 11.4 -32.8°
